SCP
0 0 0 0 0 0 -0 -0 -0 -0 -0 -0 -0 -0 -0 -0 -0 -0 -0 -0 -0 -0 -0 -0 -0 -0 0 0 -0 0 0 0 0 0 0 0 0 0 0 0 0 0 0 0 0 0 0
0 0 0 0 0 0 0 -0 -0 -0 -0 -0 -0 -0 -0 -0 -0 -0 -0 -0 -0 -0 -0 -0 -0 -0 0 0 0 0 0 0 0 0 0 0 0 0 0 0 0 0 0 0 0 0 0
0 0 0 0 0 0 0 0 0 -0 -0 -0 -0 -0 -0 -0 -0 -0 -0 -0 -0 -0 -0 0 0 0 0 0 0 0 0 0 0 0 0 0 0 0 0 0 0 0 0 0 0 0 0
0 0 0 0 0 0 0 0 0 0 0 -0 -0 -0 -0 -0 -0 -0 -0 -0 -0 -0 0 0 0 0 0 0 0 0 0 0 0 0 0 0 0 0 0 0 0 0 0 0 0 0 0
0 0 0 0 0 0 0 0 0 0 0 0 0 -0 -0 -0 -0 -0 -0 -0 -0 0 0 0 0 0 0 0 0 0 0 0 0 0 0 0 0 0 0 0 0 0 0 0 0 0 0
0 0 0 0 0 0 0 0 0 0 0 0 0 0 0 -0 -0 -0 -0 0 0 0 0 0 0 0 0 0 0 0 0 0 0 -0 -0 0 0 0 0 0 0 0 0 0 0 0 0
0 0 0 0 0 0 0 0 0 0 0 0 0 0 0 0 -0 -0 0 0 0 0 0 0 0 0 0 0 0 0 0 0 0 0 0 0 0 0 -0 0 0 0 0 0 -0 0 -0
0 0 0 0 0 0 0 0 0 0 0 0 0 0 0 0 -0 0 0 0 0 0 0 0 0 0 0 0 0 0 0 0 0 0 0 -0 0 -0 0 0 0 0 0 -0 -0 0 -0
0 0 0 0 0 0 0 0 0 0 0 0 0 0 0 0 0 0 0 0 0 0 0 0 0 0 0 0 0 0 0 0 0 -0 0 0 0 0 -0 -0 0 0 -0 -0 -0 -0 0
0 0 0 0 0 0 0 0 0 0 0 0 0 0 0 0 0 0 0 0 0 0 0 0 0 0 0 0 0 0 0 0 0 -0 0 0 0 0 -0 0 0 -0 0 -0 -0 -0 -0
0 0 0 0 0 0 0 0 0 0 0 0 0 0 0 0 0 0 0 0 0 0 0 0 0 0 0 0 0 0 0 0 0 0 0 0 -0 -0 -0 -0 0 -0 0 -0 0 -0 -0
0 0 0 0 0 0 0 0 0 0 0 0 0 0 0 0 0 0 0 0 0 0 0 0 0 0 0 0 0 0 0 0 0 0 0 0 0 0 0 0 0 0 0 0 -0 -0 0
0 0 0 0 0 0 0 0 0 0 0 0 0 0 0 0 0 0 0 0 0 0 0 0 0 0 0 0 0 0 0 0 0 0 0 0 0 0 0 0 0 0 0 -0 -0 -0 0
0 0 0 0 0 0 0 0 0 0 0 0 0 0 0 0 0 0 0 0 0 0 0 0 0 0 0 0 0 0 0 0 0 0 0 0 0 0 0 0 0 0 -0 -0 0 0 0
0 0 0 0 0 0 0 0 0 0 0 0 0 0 0 0 0 0 0 0 0 0 0 0 0 0 0 0 0 0 0 0 0 0 0 0 0 0 0 0 0 0 0 0 0 0 0
0 0 0 0 0 0 0 0 0 0 0 0 0 0 0 0 0 0 0 0 0 0 0 0 0 0 0 0 0 0 0 0 0 0 0 0 0 0 0 0 0 0 0 0 0 0 0
0 0 0 0 0 0 0 0 0 0 0 0 0 0 0 0 0 0 0 0 0 0 0 0 0 0 0 0 0 0 0 0 0 0 0 0 0 0 0 0 0 0 0 0 0 0 0
0 0 0 0 0 0 0 0 0 0 0 0 0 0 0 0 0 0 0 0 0 0 0 0 0 0 0 0 0 0 0 0 0 0 0 0 0 0 0 0 0 0 0 0 0 0 0
0 0 0 0 0 0 0 0 0 0 0 0 0 0 0 0 0 0 0 0 0 0 0 0 0 0 0 0 0 0 0 0 0 0 0 0 0 0 0 0 0 0 0 0 0 0 0
0 0 0 0 0 0 0 0 0 0 0 0 0 0 0 0 0 0 0 0 0 0 0 0 0 0 0 0 0 0 0 0 0 0 0 0 0 0 0 0 0 0 0 0 0 0 0
0 0 0 0 0 0 0 0 0 0 0 0 0 0 0 0 0 0 0 0 0 0 0 0 0 0 0 0 0 0 0 0 0 0 0 0 0 0 0 0 0 0 0 0 0 -0 0
0 0 0 0 0 0 0 0 0 0 0 0 0 0 0 0 0 0 0 0 0 0 0 0 0 0 0 0 0 0 0 0 0 0 0 0 0 0 0 0 0 0 0 0 0 -0 0
0 0 0 0 0 0 0 0 0 0 0 0 0 0 0 0 0 0 0 0 0 0 0 0 0 0 0 0 0 0 0 0 0 0 0 0 0 0 0 0 0 0 0 0 0 0 0
0 0 0 0 0 0 0 0 0 0 0 0 0 0 0 0 0 0 0 0 0 0 0 0 0 0 0 0 0 0 0 0 0 0 0 0 0 0 0 0 0 0 0 0 0 0 0
0 0 0 0 0 0 0 0 0 0 0 0 0 0 0 0 0 0 0 0 0 0 0 0 0 0 0 0 0 0 0 0 0 0 0 0 0 0 0 0 0 0 0 0 0 0 0
0 0 0 0 0 0 0 0 0 0 0 0 0 0 0 0 0 0 0 0 0 0 0 0 0 0 0 0 0 0 0 0 0 0 0 0 0 0 0 0 0 0 0 0 0 0 0
-0 0 -0 -0 0 0 0 0 0 0 0 0 0 0 0 0 0 0 0 0 0 0 0 0 0 0 0 0 0 0 0 0 0 0 0 0 0 0 0 0 0 0 0 0 0 0 0
-0 0 -0 -0 -0 0 0 0 0 0 0 0 0 0 0 0 0 0 0 0 0 0 0 0 0 0 0 0 0 0 0 0 0 0 0 0 0 0 0 0 0 0 0 0 0 0 0
0 0 0 -0 -0 0 0 0 0 0 0 0 0 0 0 0 0 0 0 0 0 0 0 0 0 0 0 0 0 0 0 0 0 0 0 0 1 1 0 0 0 0 0 0 0 0 0
Wind_Speed_500mb
15 15 14 11 10 10 11 11 10 10 10 10 10 11 10 11 10 11 11 11 10 8 7 5 5 4 5 7 12 7 22 17 15 10 5 2 1 2 7 7 8 7 9 4 6 3 7
16 15 15 13 12 12 12 11 11 11 12 12 12 11 12 11 12 11 12 11 11 9 7 6 5 5 5 13 9 13 24 19 11 7 4 6 4 3 9 5 6 7 3 7 9 13 13
17 16 15 14 13 13 13 12 12 12 13 14 14 13 12 13 13 12 13 12 12 11 8 7 5 6 9 4 13 16 23 16 13 6 7 7 4 7 4 7 4 2 9 11 8 4 7
19 17 15 13 13 14 15 14 12 14 14 15 15 15 13 13 13 13 13 12 12 11 9 7 4 4 5 16 17 15 21 16 13 9 6 3 5 1 3 3 6 5 6 6 10 4 6
20 19 17 16 13 13 15 16 15 15 16 16 17 16 15 14 13 12 13 11 11 10 9 7 2 3 9 16 14 15 16 11 13 11 7 4 3 2 5 10 14 6 8 2 5 5 6
21 21 20 17 17 15 15 17 17 17 17 17 17 17 16 15 12 11 10 8 7 8 8 5 7 8 10 14 13 18 18 16 13 15 10 7 8 10 7 19 6 4 4 3 3 6 6
25 24 22 22 20 18 19 18 19 20 19 19 18 16 16 15 12 9 6 2 2 4 16 8 3 6 8 6 25 21 20 18 16 19 18 8 17 11 15 9 7 1 2 1 5 8 11
28 28 27 24 23 22 21 21 21 20 21 20 18 16 14 13 11 8 6 3 5 5 8 24 17 15 7 10 19 26 27 26 23 23 12 14 14 10 6 5 1 2 4 9 10 8 6
26 27 28 29 27 23 23 22 23 23 22 21 18 14 12 10 9 5 9 12 5 2 12 9 20 18 12 15 16 38 38 33 27 27 25 24 18 11 12 12 10 8 8 9 8 12 1
24 25 28 30 33 28 25 22 24 25 24 23 19 13 9 7 1 5 8 10 3 2 10 22 17 15 20 14 16 26 37 32 15 28 21 21 24 12 13 7 14 13 4 9 11 11 5
24 25 28 31 34 33 30 25 21 24 26 24 20 13 8 7 4 8 13 7 6 4 11 19 13 9 22 31 19 24 34 27 29 21 18 17 24 28 23 17 8 13 5 10 2 9 12
25 24 29 30 31 33 32 28 24 24 24 24 21 15 9 9 7 16 15 8 9 12 13 14 15 22 29 35 18 23 33 20 22 22 23 16 1 15 25 14 10 3 7 7 6 8 16
25 26 30 30 30 31 33 32 28 24 24 22 21 18 13 14 8 21 15 14 11 18 8 17 18 22 36 27 26 30 38 39 26 30 30 29 25 11 14 22 16 18 20 15 15 14 1
23 27 28 31 33 35 34 34 30 24 23 20 17 18 17 20 20 26 16 14 20 6 13 6 12 24 32 31 30 29 36 38 45 36 22 28 29 36 27 27 20 31 27 15 9 8 10
20 25 27 31 36 38 35 35 32 24 21 15 12 14 17 23 26 31 24 22 15 7 5 14 18 28 28 30 17 29 35 40 37 38 27 24 31 8 20 24 24 21 23 17 19 10 14
24 25 24 29 36 40 35 33 31 23 18 11 7 8 13 25 29 30 19 30 9 6 5 10 26 26 34 38 30 31 34 31 39 43 38 17 18 22 19 20 18 27 14 17 19 16 11
27 24 25 29 35 39 33 30 31 22 13 8 5 10 14 25 33 28 24 28 17 13 7 10 16 16 21 31 38 40 31 8 38 36 39 21 22 17 18 29 35 21 26 19 16 8 9
26 26 29 28 34 34 31 29 28 20 8 4 5 9 8 36 24 32 27 34 8 18 16 8 9 12 17 22 36 34 34 33 37 43 41 31 20 17 35 10 13 32 44 39 23 27 19
25 27 29 28 31 31 28 27 27 22 9 1 5 1 13 19 17 21 16 25 25 21 21 11 11 9 5 15 21 30 26 21 21 34 33 36 19 22 23 20 17 25 28 28 32 28 17
24 25 29 29 25 26 24 24 26 21 11 1 6 11 11 24 18 22 35 31 31 26 19 15 4 7 10 16 12 26 22 18 30 40 36 36 32 31 22 31 30 38 32 34 34 24 24
24 24 27 27 24 23 21 22 26 21 10 4 8 3 3 15 29 22 25 19 37 24 29 18 17 20 12 13 17 13 25 15 20 19 26 30 35 27 27 9 14 22 35 38 42 40 30
22 24 22 24 25 21 20 19 23 20 9 1 7 8 6 13 23 33 21 35 29 35 23 25 28 21 27 24 13 15 22 16 15 20 29 35 25 28 34 27 21 19 22 27 35 41 24
20 23 21 20 23 21 19 17 21 19 10 2 7 7 7 11 18 25 26 24 28 22 26 33 18 30 21 23 29 28 10 11 6 10 30 30 26 21 29 27 25 27 29 26 25 18 19
20 19 20 20 19 19 17 17 19 18 7 5 8 4 10 11 15 23 23 27 21 24 22 12 29 24 6 7 18 24 29 28 21 20 23 21 31 17 23 21 31 7 6 13 19 10 12
19 19 18 19 19 19 17 19 17 17 9 7 6 3 7 12 11 12 21 23 22 19 21 21 15 14 11 17 15 19 18 20 24 19 20 21 25 17 12 25 10 9 12 19 25 21 15
18 17 17 18 19 19 18 19 16 15 12 8 8 12 6 14 13 6 14 14 17 20 18 17 9 11 17 17 19 28 30 24 25 18 14 18 18 23 19 25 23 9 23 3 11 17 27
15 14 17 18 16 17 16 18 15 12 11 8 9 12 5 12 2 6 8 3 3 7 7 8 8 15 21 19 22 24 31 33 31 35 17 21 19 24 20 25 13 14 8 5 20 7 33
13 12 15 16 12 15 17 17 14 10 9 4 8 7 4 11 14 7 4 3 3 1 6 8 9 13 14 23 23 19 20 19 28 3 16 23 19 17 17 21 13 6 11 10 12 28 37
9 9 11 13 14 14 14 12 9 6 2 5 2 3 6 11 12 16 20 20 14 8 12 4 8 3 9 11 5 9 12 9 27 18 4 9 8 6 11 9 7 8 14 23 26 38 38
Wind_Direction_500mb
22 17 20 16 13 7 11 2 354 341 328 318 310 305 303 302 300 299 293 287 285 282 290 271 251 217 178 224 92 139 157 149 141 113 89 114 243 31 47 53 49 19 25 25 50 37 118
21 14 12 9 6 5 359 359 355 346 336 327 319 308 301 297 297 294 290 284 277 270 277 264 238 203 195 215 153 153 153 160 178 159 106 75 57 115 70 68 357 13 15 84 83 91 116
12 11 7 360 356 354 353 353 345 340 334 326 324 316 304 297 293 289 284 278 272 266 267 260 239 212 220 42 177 163 165 172 171 155 133 70 53 276 150 137 18 52 166 139 69 61 79
3 0 359 356 345 343 343 342 341 334 330 325 319 314 309 302 294 286 279 273 264 259 255 255 240 188 235 206 178 166 171 173 172 167 124 27 354 96 45 164 146 129 246 129 56 304 89
348 345 345 341 340 335 329 330 332 331 326 320 319 312 310 306 297 282 273 269 258 250 243 240 223 186 181 198 180 179 163 178 176 178 191 5 5 52 189 215 159 175 107 95 129 352 319
343 339 336 329 327 323 318 318 321 321 321 318 314 311 313 311 301 284 271 263 253 243 229 229 228 207 211 170 183 180 174 157 179 178 177 217 218 195 193 217 136 108 160 138 35 80 250
351 345 338 330 320 313 308 307 308 311 314 313 312 308 313 310 303 279 247 169 246 228 213 248 133 297 131 204 185 183 179 168 173 205 215 191 234 203 108 63 81 24 165 341 59 26 289
359 352 348 340 331 323 310 299 298 300 303 308 309 308 310 308 300 271 190 214 200 178 252 231 234 232 193 154 180 181 174 190 195 207 200 199 227 114 130 134 174 118 190 77 111 48 264
356 354 353 346 340 332 318 305 291 288 292 299 304 305 308 302 289 226 169 172 161 286 259 199 214 226 203 195 202 184 181 200 207 213 206 238 91 150 200 191 223 112 47 66 343 312 209
354 359 352 345 342 337 326 312 297 288 285 287 294 299 299 302 153 180 159 176 176 167 252 156 195 201 194 192 219 189 196 192 204 218 215 233 149 173 207 209 263 165 53 322 290 249 83
340 344 345 346 345 344 339 330 309 290 283 279 280 285 284 231 208 149 203 191 159 148 239 132 153 198 173 192 122 184 186 204 213 201 203 190 203 216 226 219 240 89 325 346 292 213 260
349 338 338 340 342 344 343 338 322 301 285 275 272 267 252 246 217 192 173 167 148 223 230 153 148 179 174 195 186 146 180 205 232 222 225 248 136 232 236 144 207 296 231 201 188 267 233
347 345 346 341 338 335 340 336 326 311 292 272 260 255 228 216 189 178 173 156 205 240 124 164 181 182 194 182 180 179 183 191 193 201 211 211 209 180 206 209 193 222 229 228 213 203 205
349 355 357 355 347 339 335 335 328 316 296 275 254 245 228 214 196 176 166 209 227 237 207 112 175 179 196 181 198 194 191 199 212 216 218 210 206 200 194 234 226 209 240 251 231 233 137
338 338 341 347 347 346 336 334 331 319 299 278 251 241 233 214 193 177 194 214 209 198 143 180 162 182 197 191 217 193 206 210 194 214 222 209 231 96 216 208 226 182 229 260 279 222 276
337 332 336 343 337 340 337 336 334 323 302 285 240 209 215 204 188 179 215 231 209 253 229 226 212 204 194 194 199 197 190 210 203 208 228 198 238 180 188 217 219 257 233 199 232 267 256
348 344 339 339 336 339 338 339 338 330 307 291 178 211 233 189 167 194 215 217 221 214 231 227 228 208 235 188 203 197 191 174 201 195 216 215 241 152 191 207 206 194 217 230 296 247 265
356 351 341 334 339 342 342 344 345 341 336 198 202 219 209 164 190 207 220 217 216 207 198 233 264 270 228 197 206 203 214 213 190 187 199 204 216 210 209 151 271 225 220 223 227 217 243
337 340 342 335 337 339 343 350 349 349 4 80 216 175 179 172 210 206 205 209 233 207 203 205 225 249 200 210 203 207 207 190 185 190 200 194 222 209 193 177 204 228 225 257 232 245 230
331 334 340 342 341 342 344 349 350 349 355 225 231 190 162 211 253 260 201 213 211 216 234 220 258 223 206 199 214 187 197 173 198 209 203 196 227 228 217 222 203 210 224 224 237 227 234
336 337 338 342 345 345 344 345 350 350 352 168 225 214 340 191 214 224 221 216 214 193 223 221 227 239 215 215 197 199 196 154 188 170 197 219 225 216 241 229 248 214 217 219 227 240 246
334 335 336 345 344 341 342 344 347 350 357 118 263 298 214 284 226 207 197 219 227 216 204 213 230 222 227 239 244 170 185 191 172 190 215 212 234 219 227 211 226 221 229 214 227 239 255
327 332 333 333 339 340 338 331 338 348 11 283 291 290 275 160 205 209 204 221 222 223 211 246 219 239 225 244 262 277 285 301 270 210 195 211 229 212 218 211 213 231 225 219 229 224 256
316 325 329 331 331 336 332 328 323 334 347 335 287 272 252 223 224 214 210 216 212 206 238 204 228 232 252 279 278 246 246 249 249 229 241 212 211 204 227 168 214 111 188 233 213 183 207
317 316 321 323 323 318 323 319 315 318 322 312 272 253 265 259 238 203 214 212 218 215 226 240 227 237 245 259 247 234 215 217 215 214 213 242 211 200 188 210 115 174 186 180 188 173 194
307 313 318 324 326 325 317 315 309 305 305 313 275 221 262 293 197 39 200 201 217 207 182 223 207 217 219 239 222 221 209 196 188 175 223 208 239 218 203 234 214 169 128 179 201 202 177
311 314 316 323 329 329 332 321 313 298 295 298 255 203 243 266 240 250 224 187 210 219 268 145 165 195 206 216 220 215 224 203 208 198 180 185 208 210 201 219 114 80 97 225 210 123 162
315 316 328 341 338 330 325 323 317 300 295 281 237 197 225 268 276 254 247 226 201 238 301 72 201 202 192 223 219 212 234 189 223 219 181 190 201 203 217 212 189 9 186 238 82 133 147
331 335 351 355 353 344 339 340 338 325 296 156 176 188 311 267 274 278 257 250 241 266 298 295 349 100 14 246 245 264 207 195 204 193 179 192 341 86 358 57 69 93 107 108 121 127 132
Wind_Speed_850mb
15 15 14 11 10 10 11 11 10 10 10 10 10 11 10 11 10 11 11 11 10 8 7 5 5 4 5 7 12 7 22 17 15 10 5 2 1 2 7 7 8 7 9 4 6 3 7
16 15 15 13 12 12 12 11 11 11 12 12 12 11 12 11 12 11 12 11 11 9 7 6 5 5 5 13 9 13 24 19 11 7 4 6 4 3 9 5 6 7 3 7 9 13 13
17 16 15 14 13 13 13 12 12 12 13 14 14 13 12 13 13 12 13 12 12 11 8 7 5 6 9 4 13 16 23 16 13 6 7 7 4 7 4 7 4 2 9 11 8 4 7
19 17 15 13 13 14 15 14 12 14 14 15 15 15 13 13 13 13 13 12 12 11 9 7 4 4 5 16 17 15 21 16 13 9 6 3 5 1 3 3 6 5 6 6 10 4 6
20 19 17 16 13 13 15 16 15 15 16 16 17 16 15 14 13 12 13 11 11 10 9 7 2 3 9 16 14 15 16 11 13 11 7 4 3 2 5 10 14 6 8 2 5 5 6
21 21 20 17 17 15 15 17 17 17 17 17 17 17 16 15 12 11 10 8 7 8 8 5 7 8 10 14 13 18 18 16 13 15 10 7 8 10 7 19 6 4 4 3 3 6 6
25 24 22 22 20 18 19 18 19 20 19 19 18 16 16 15 12 9 6 2 2 4 16 8 3 6 8 6 25 21 20 18 16 19 18 8 17 11 15 9 7 1 2 1 5 8 11
28 28 27 24 23 22 21 21 21 20 21 20 18 16 14 13 11 8 6 3 5 5 8 24 17 15 7 10 19 26 27 26 23 23 12 14 14 10 6 5 1 2 4 9 10 8 6
26 27 28 29 27 23 23 22 23 23 22 21 18 14 12 10 9 5 9 12 5 2 12 9 20 18 12 15 16 38 38 33 27 27 25 24 18 11 12 12 10 8 8 9 8 12 1
24 25 28 30 33 28 25 22 24 25 24 23 19 13 9 7 1 5 8 10 3 2 10 22 17 15 20 14 16 26 37 32 15 28 21 21 24 12 13 7 14 13 4 9 11 11 5
24 25 28 31 34 33 30 25 21 24 26 24 20 13 8 7 4 8 13 7 6 4 11 19 13 9 22 31 19 24 34 27 29 21 18 17 24 28 23 17 8 13 5 10 2 9 12
25 24 29 30 31 33 32 28 24 24 24 24 21 15 9 9 7 16 15 8 9 12 13 14 15 22 29 35 18 23 33 20 22 22 23 16 1 15 25 14 10 3 7 7 6 8 16
25 26 30 30 30 31 33 32 28 24 24 22 21 18 13 14 8 21 15 14 11 18 8 17 18 22 36 27 26 30 38 39 26 30 30 29 25 11 14 22 16 18 20 15 15 14 1
23 27 28 31 33 35 34 34 30 24 23 20 17 18 17 20 20 26 16 14 20 6 13 6 12 24 32 31 30 29 36 38 45 36 22 28 29 36 27 27 20 31 27 15 9 8 10
20 25 27 31 36 38 35 35 32 24 21 15 12 14 17 23 26 31 24 22 15 7 5 14 18 28 28 30 17 29 35 40 37 38 27 24 31 8 20 24 24 21 23 17 19 10 14
24 25 24 29 36 40 35 33 31 23 18 11 7 8 13 25 29 30 19 30 9 6 5 10 26 26 34 38 30 31 34 31 39 43 38 17 18 22 19 20 18 27 14 17 19 16 11
27 24 25 29 35 39 33 30 31 22 13 8 5 10 14 25 33 28 24 28 17 13 7 10 16 16 21 31 38 40 31 8 38 36 39 21 22 17 18 29 35 21 26 19 16 8 9
26 26 29 28 34 34 31 29 28 20 8 4 5 9 8 36 24 32 27 34 8 18 16 8 9 12 17 22 36 34 34 33 37 43 41 31 20 17 35 10 13 32 44 39 23 27 19
25 27 29 28 31 31 28 27 27 22 9 1 5 1 13 19 17 21 16 25 25 21 21 11 11 9 5 15 21 30 26 21 21 34 33 36 19 22 23 20 17 25 28 28 32 28 17
24 25 29 29 25 26 24 24 26 21 11 1 6 11 11 24 18 22 35 31 31 26 19 15 4 7 10 16 12 26 22 18 30 40 36 36 32 31 22 31 30 38 32 34 34 24 24
24 24 27 27 24 23 21 22 26 21 10 4 8 3 3 15 29 22 25 19 37 24 29 18 17 20 12 13 17 13 25 15 20 19 26 30 35 27 27 9 14 22 35 38 42 40 30
22 24 22 24 25 21 20 19 23 20 9 1 7 8 6 13 23 33 21 35 29 35 23 25 28 21 27 24 13 15 22 16 15 20 29 35 25 28 34 27 21 19 22 27 35 41 24
20 23 21 20 23 21 19 17 21 19 10 2 7 7 7 11 18 25 26 24 28 22 26 33 18 30 21 23 29 28 10 11 6 10 30 30 26 21 29 27 25 27 29 26 25 18 19
20 19 20 20 19 19 17 17 19 18 7 5 8 4 10 11 15 23 23 27 21 24 22 12 29 24 6 7 18 24 29 28 21 20 23 21 31 17 23 21 31 7 6 13 19 10 12
19 19 18 19 19 19 17 19 17 17 9 7 6 3 7 12 11 12 21 23 22 19 21 21 15 14 11 17 15 19 18 20 24 19 20 21 25 17 12 25 10 9 12 19 25 21 15
18 17 17 18 19 19 18 19 16 15 12 8 8 12 6 14 13 6 14 14 17 20 18 17 9 11 17 17 19 28 30 24 25 18 14 18 18 23 19 25 23 9 23 3 11 17 27
15 14 17 18 16 17 16 18 15 12 11 8 9 12 5 12 2 6 8 3 3 7 7 8 8 15 21 19 22 24 31 33 31 35 17 21 19 24 20 25 13 14 8 5 20 7 33
13 12 15 16 12 15 17 17 14 10 9 4 8 7 4 11 14 7 4 3 3 1 6 8 9 13 14 23 23 19 20 19 28 3 16 23 19 17 17 21 13 6 11 10 12 28 37
9 9 11 13 14 14 14 12 9 6 2 5 2 3 6 11 12 16 20 20 14 8 12 4 8 3 9 11 5 9 12 9 27 18 4 9 8 6 11 9 7 8 14 23 26 38 38
Wind_Direction_850mb
22 17 20 16 13 7 11 2 354 341 328 318 310 305 303 302 300 299 293 287 285 282 290 271 251 217 178 224 92 139 157 149 141 113 89 114 243 31 47 53 49 19 25 25 50 37 118
21 14 12 9 6 5 359 359 355 346 336 327 319 308 301 297 297 294 290 284 277 270 277 264 238 203 195 215 153 153 153 160 178 159 106 75 57 115 70 68 357 13 15 84 83 91 116
12 11 7 360 356 354 353 353 345 340 334 326 324 316 304 297 293 289 284 278 272 266 267 260 239 212 220 42 177 163 165 172 171 155 133 70 53 276 150 137 18 52 166 139 69 61 79
3 0 359 356 345 343 343 342 341 334 330 325 319 314 309 302 294 286 279 273 264 259 255 255 240 188 235 206 178 166 171 173 172 167 124 27 354 96 45 164 146 129 246 129 56 304 89
348 345 345 341 340 335 329 330 332 331 326 320 319 312 310 306 297 282 273 269 258 250 243 240 223 186 181 198 180 179 163 178 176 178 191 5 5 52 189 215 159 175 107 95 129 352 319
343 339 336 329 327 323 318 318 321 321 321 318 314 311 313 311 301 284 271 263 253 243 229 229 228 207 211 170 183 180 174 157 179 178 177 217 218 195 193 217 136 108 160 138 35 80 250
351 345 338 330 320 313 308 307 308 311 314 313 312 308 313 310 303 279 247 169 246 228 213 248 133 297 131 204 185 183 179 168 173 205 215 191 234 203 108 63 81 24 165 341 59 26 289
359 352 348 340 331 323 310 299 298 300 303 308 309 308 310 308 300 271 190 214 200 178 252 231 234 232 193 154 180 181 174 190 195 207 200 199 227 114 130 134 174 118 190 77 111 48 264
356 354 353 346 340 332 318 305 291 288 292 299 304 305 308 302 289 226 169 172 161 286 259 199 214 226 203 195 202 184 181 200 207 213 206 238 91 150 200 191 223 112 47 66 343 312 209
354 359 352 345 342 337 326 312 297 288 285 287 294 299 299 302 153 180 159 176 176 167 252 156 195 201 194 192 219 189 196 192 204 218 215 233 149 173 207 209 263 165 53 322 290 249 83
340 344 345 346 345 344 339 330 309 290 283 279 280 285 284 231 208 149 203 191 159 148 239 132 153 198 173 192 122 184 186 204 213 201 203 190 203 216 226 219 240 89 325 346 292 213 260
349 338 338 340 342 344 343 338 322 301 285 275 272 267 252 246 217 192 173 167 148 223 230 153 148 179 174 195 186 146 180 205 232 222 225 248 136 232 236 144 207 296 231 201 188 267 233
347 345 346 341 338 335 340 336 326 311 292 272 260 255 228 216 189 178 173 156 205 240 124 164 181 182 194 182 180 179 183 191 193 201 211 211 209 180 206 209 193 222 229 228 213 203 205
349 355 357 355 347 339 335 335 328 316 296 275 254 245 228 214 196 176 166 209 227 237 207 112 175 179 196 181 198 194 191 199 212 216 218 210 206 200 194 234 226 209 240 251 231 233 137
338 338 341 347 347 346 336 334 331 319 299 278 251 241 233 214 193 177 194 214 209 198 143 180 162 182 197 191 217 193 206 210 194 214 222 209 231 96 216 208 226 182 229 260 279 222 276
337 332 336 343 337 340 337 336 334 323 302 285 240 209 215 204 188 179 215 231 209 253 229 226 212 204 194 194 199 197 190 210 203 208 228 198 238 180 188 217 219 257 233 199 232 267 256
348 344 339 339 336 339 338 339 338 330 307 291 178 211 233 189 167 194 215 217 221 214 231 227 228 208 235 188 203 197 191 174 201 195 216 215 241 152 191 207 206 194 217 230 296 247 265
356 351 341 334 339 342 342 344 345 341 336 198 202 219 209 164 190 207 220 217 216 207 198 233 264 270 228 197 206 203 214 213 190 187 199 204 216 210 209 151 271 225 220 223 227 217 243
337 340 342 335 337 339 343 350 349 349 4 80 216 175 179 172 210 206 205 209 233 207 203 205 225 249 200 210 203 207 207 190 185 190 200 194 222 209 193 177 204 228 225 257 232 245 230
331 334 340 342 341 342 344 349 350 349 355 225 231 190 162 211 253 260 201 213 211 216 234 220 258 223 206 199 214 187 197 173 198 209 203 196 227 228 217 222 203 210 224 224 237 227 234
336 337 338 342 345 345 344 345 350 350 352 168 225 214 340 191 214 224 221 216 214 193 223 221 227 239 215 215 197 199 196 154 188 170 197 219 225 216 241 229 248 214 217 219 227 240 246
334 335 336 345 344 341 342 344 347 350 357 118 263 298 214 284 226 207 197 219 227 216 204 213 230 222 227 239 244 170 185 191 172 190 215 212 234 219 227 211 226 221 229 214 227 239 255
327 332 333 333 339 340 338 331 338 348 11 283 291 290 275 160 205 209 204 221 222 223 211 246 219 239 225 244 262 277 285 301 270 210 195 211 229 212 218 211 213 231 225 219 229 224 256
316 325 329 331 331 336 332 328 323 334 347 335 287 272 252 223 224 214 210 216 212 206 238 204 228 232 252 279 278 246 246 249 249 229 241 212 211 204 227 168 214 111 188 233 213 183 207
317 316 321 323 323 318 323 319 315 318 322 312 272 253 265 259 238 203 214 212 218 215 226 240 227 237 245 259 247 234 215 217 215 214 213 242 211 200 188 210 115 174 186 180 188 173 194
307 313 318 324 326 325 317 315 309 305 305 313 275 221 262 293 197 39 200 201 217 207 182 223 207 217 219 239 222 221 209 196 188 175 223 208 239 218 203 234 214 169 128 179 201 202 177
311 314 316 323 329 329 332 321 313 298 295 298 255 203 243 266 240 250 224 187 210 219 268 145 165 195 206 216 220 215 224 203 208 198 180 185 208 210 201 219 114 80 97 225 210 123 162
315 316 328 341 338 330 325 323 317 300 295 281 237 197 225 268 276 254 247 226 201 238 301 72 201 202 192 223 219 212 234 189 223 219 181 190 201 203 217 212 189 9 186 238 82 133 147
331 335 351 355 353 344 339 340 338 325 296 156 176 188 311 267 274 278 257 250 241 266 298 295 349 100 14 246 245 264 207 195 204 193 179 192 341 86 358 57 69 93 107 108 121 127 132